Location: Colorado Springs
(38.8340°N, 104.8210°W)
Time: 06:43:54
(UTC-06:00)

Hubble Space Telescope - Pass Details

Date: 07 October 2017
Orbit: 537 x 541 km, 28.5° (Epoch: 19 October)

Event Time Altitude Azimuth Distance (km) Brightness Sun altitude
Exits shadow 05:12:03 19° 175° (S) 1,311 2.6 -22.0°
Drops below altitude 10° 05:14:41 10° 136° (SE) 1,788 3.8 -21.5°
Sets 05:17:26 0° 118° (ESE) 2,679 5.2 -20.9°
